Regional Weather Roundup
Issued by NWS Nashville, TN

Home | Current Version | Previous Version | Text Only | Print | Product List | Glossary On
Versions: 1 2 3 4 5 6 7 8 9 10 11 12 13 14 15 16 17 18 19 20 21 22 23 24 25 26 27 28
000
ASUS44 KOHX 281410
RWROHX
MIDDLE TENNESSEE HOURLY WEATHER ROUNDUP
NATIONAL WEATHER SERVICE NASHVILLE TN
900 AM CDT FRI APR 28 2017

NOTE: "FAIR" INDICATES FEW OR NO CLOUDS BELOW 12,000 FEET WITH
NO SIGNIFICANT WEATHER AND/OR OBSTRUCTIONS TO VISIBILITY.

* THESE REPORTS ARE NOT UNDER NWS QUALITY CONTROL AND MAY NOT
  REPORT WEATHER SUCH AS PRECIPITATION AND FOG.


TNZ005>011-023>034-057-059-062>066-078-080-281500
...NORTHERN MIDDLE TENNESSEE...

CITY           SKY/WX    TMP DP  RH WIND       PRES   REMARKS
CLARKSVILLE    MOSUNNY   59  52  77 SE6       29.92F
CROSSVILLE     PTSUNNY   67  55  65 S8        30.02S
GALLATIN       MOSUNNY   63  55  77 NE3       29.97R
DICKSON        CLOUDY    60  55  83 VRB5      29.92R
LEBANON        CLOUDY    65  56  72 NE3       29.91R
NASHVILLE      CLOUDY    63  55  75 CALM      29.95R
PORTLAND       MOSUNNY   63  55  77 CALM      29.95R
SMYRNA         MOSUNNY   66  58  75 CALM      29.96R
SPARTA         SUNNY     70  57  64 S8        29.95F
SPRINGFIELD    SUNNY     61  55  82 SE6       29.92F
WEST NASHVILLE MOSUNNY   61  55  82 CALM      29.94R
$$
TNZ056-058-060-061-075>077-079-093>097-281500
...SOUTHERN MIDDLE TENNESSEE...

CITY           SKY/WX    TMP DP  RH WIND       PRES   REMARKS
COLUMBIA       CLOUDY   N/A N/A N/A CALM      29.91S
FAYETTEVILLE   MOSUNNY   70  64  83 SE12      29.95R
MCMINNVILLE    SUNNY     72  63  73 S6        29.95S
MURFREESBORO   MOSUNNY   68  57  67 S3        29.92R
SHELBYVILLE    PTSUNNY   72  63  73 S13       29.95R
TULLAHOMA      SUNNY     70  61  73 S14       29.96R
WINCHESTER     PTSUNNY   70  61  73 SE9       29.97R
$$


...KEY TO REMARKS...
VSB - VISIBILITY IN MILES
WCI - WIND CHILL INDEX
HX  - HEAT INDEX





USA.gov is the U.S. government's official web portal to all federal, state and local government web resources and services.